This demonstration page uses our WeatherBlox Daily Observations layout. Learn more.

39.92423, -83.80882

Hourly Observations for June 12, 2020

Temp ( °F °C ) Dew Point ( °F °C ) Humidity (%) Winds ( mph kmh ) Pressure ( in mb ) Visibility ( mi km ) Precip ( " mm )
12:56 am 00:56 Clear 63 17.2 51 10.6 65 65 SSW 6 9 30.21 1023 10 16.0934 0.01 0.254
1:56 am 01:56 Clear 62 16.7 51 10.6 67 67 SW 7 11 30.2 1023 10 16.0934 0.06 1.524
2:56 am 02:56 Mostly Clear 62 16.7 50 10 65 65 SW 8 13 30.21 1023 10 16.0934 1.87 47.498
3:56 am 03:56 Clear 59 15 52 11.1 78 78 SW 5 7 30.21 1023 10 16.0934 0.96 24.384
4:56 am 04:56 Clear 59 15 52 11.1 78 78 WSW 7 11 30.21 1023 10 16.0934 0.26 6.604
5:56 am 05:56 Clear 57 13.9 52 11.1 83 83 WSW 5 7 30.22 1024 10 16.0934 0 0
6:56 am 06:56 Sunny 60 15.6 53 11.7 78 78 W 7 11 30.24 1024 10 16.0934 0 0
7:56 am 07:56 Sunny 66 18.9 54 12.2 65 65 WNW 6 9 30.25 1024 10 16.0934 0.05 1.27
8:56 am 08:56 Sunny 69 20.6 55 12.8 61 61 NNW 9 15 30.25 1025 10 16.0934 0 0
9:56 am 09:56 Sunny 72 22.2 56 13.3 57 57 NNW 10 17 30.27 1025 10 16.0934 0.01 0.254
10:56 am 10:56 Sunny 76 24.4 54 12.2 47 47 N 9 15 30.26 1025 10 16.0934 0.55 13.97
11:56 am 11:56 Sunny 78 25.6 51 10.6 39 39 NNW 12 19 30.26 1025 10 16.0934 0 0
12:56 pm 12:56 Sunny 79 26.1 51 10.6 38 38 NNW 14 22 30.26 1025 10 16.0934 0 0
1:56 pm 13:56 Sunny 79 26.1 49 9.4 35 35 N 15 24 30.25 1024 10 16.0934 0 0
2:56 pm 14:56 Sunny 81 27.2 49 9.4 33 33 N 10 17 30.23 1024 10 16.0934 0.05 1.27
3:56 pm 15:56 Sunny 80 26.7 48 8.9 33 33 N 9 15 30.22 1023 10 16.0934 0.21 5.334
4:56 pm 16:56 Sunny 80 26.7 47 8.3 31 31 N 8 13 30.21 1023 10 16.0934 0.38 9.652
5:56 pm 17:56 Partly Cloudy 80 26.7 50 10 35 35 N 8 13 30.19 1023 10 16.0934 0.1 2.54
6:56 pm 18:56 Mostly Cloudy 78 25.6 48 8.9 35 35 N 7 11 30.18 1022 10 16.0934 1 25.4
7:56 pm 19:56 Cloudy 77 25 51 10.6 40 40 N 5 7 30.18 1022 10 16.0934 0.21 5.334
8:56 pm 20:56 Mostly Sunny 74 23.3 52 11.1 46 46 Calm 30.18 1022 10 16.0934 0.13 3.302
9:56 pm 21:56 Clear 68 20 56 13.3 65 65 Calm 30.18 1022 10 16.0934 0.05 1.27
10:56 pm 22:56 Clear 65 18.3 56 13.3 73 73 Calm 30.19 1022 9 14.48406 0.01 0.254
11:56 pm 23:56 Clear 63 17.2 56 13.3 78 78 S 3 6 30.17 1022 10 16.0934 0.12 3.048

Powered by AerisWeather